Flag for Germany Weather past 2 weeks in Rheinberg, North Rhine-Westphalia, Germany

Now
44 °F

Overcast.


Feels Like: 39 °F
Forecast: 38 / 47 °F
Wind: 9 mph from South

Location: Duesseldorf

Current Time: Mar 1, 2015 at 1:53:43 AM

Latest Report: Mar 1, 2015 at 1:00 AM


Visibility: 31 mi

Pressure: 29.76 "Hg

Humidity: 54%

Dew point: 28 °F

Location of RheinbergLocation

Historic Weather in Rheinberg — Graph

°F

Rheinberg temperature yesterday

Maximum temperature yesterday: 47 °F (at 4:00 PM)
Minimum temperature yesterday: 28 °F (at 5:00 AM)
Average temperature yesterday: 39 °F

Past Weeks' High & Low Weather Summary

 TemperatureHumidityPressure
High53 °F (Feb 14, 3:00 PM)100% (Feb 18, 7:00 AM)30.78 "Hg (Feb 18, 7:00 AM)
Low26 °F (Feb 15, 8:00 AM)49% (Feb 28, 4:00 PM)29.35 "Hg (Feb 21, 5:00 AM)
Average39 °F82%29.98 "Hg
* Reported Midnight between Feb 13 and Feb 14 — Midnight between Feb 28 and Mar 1, Rheinberg, Weather by CustomWeather, © 2015

Note: Actual official high and low records may vary slightly from our data, if they occured in-between our weather recording intervals... More about our weather records

Advertising

Rheinberg weather history for previous 24 hours

 ConditionsComfort  
Time TempWeatherWind HumidityBarometerVisibility
12:00 AM
Sun, Mar 1
44 °FOvercast.12 mph54%29.77 "Hg31 mi
11:00 PM
Sat, Feb 28
43 °FOvercast.10 mph55%29.81 "Hg31 mi
10:00 PMN/APassing clouds.No windN/AN/A2 mi
9:00 PM43 °FOvercast.9 mph56%29.88 "Hg31 mi
8:00 PM44 °FPassing clouds.8 mph57%29.91 "Hg25 mi
7:00 PM43 °FPassing clouds.8 mph57%29.93 "Hg25 mi
6:00 PM44 °FScattered clouds.8 mph56%29.94 "Hg25 mi
5:00 PM46 °FPassing clouds.8 mph50%29.96 "Hg25 mi
4:00 PM47 °FScattered clouds.8 mph49%30.00 "Hg25 mi
3:00 PM47 °FScattered clouds.7 mph51%30.03 "Hg25 mi
2:00 PM46 °FPartly sunny.7 mph54%30.05 "Hg22 mi
1:00 PM45 °FPartly sunny.7 mph59%30.08 "Hg22 mi
12:00 PM43 °FScattered clouds.7 mph63%30.10 "Hg22 mi
11:00 AM40 °FPartly sunny.6 mph71%30.12 "Hg22 mi
10:00 AM37 °FPartly sunny.5 mph80%30.14 "Hg14 mi
9:00 AM33 °FScattered clouds.6 mph89%30.15 "Hg11 mi
8:00 AM31 °FScattered clouds.6 mph92%30.15 "Hg9 mi
7:00 AM30 °FClear.5 mph94%30.15 "Hg14 mi
6:00 AM31 °FClear.5 mph93%30.15 "Hg12 mi
5:00 AM28 °FClear.1 mph96%30.16 "Hg16 mi
3:00 AM31 °FClear.3 mph95%30.18 "Hg16 mi
2:00 AM31 °FPassing clouds.3 mph93%30.18 "Hg19 mi
1:00 AM31 °FPassing clouds.1 mph93%30.17 "Hg19 mi
Weather by CustomWeather, © 2015

See weather overviewHow to use our weather pages